Location: Street
(51.1247°N, 2.7429°W)
Time: 09:40:14
(UTC+01:00)

UWE-3 - Pass Details

Date: 02 April 2023
Orbit: 576 x 669 km, 97.7° (Epoch: 02 June)

Event Time Altitude Azimuth Distance (km) Brightness Sun altitude
Rises 06:03:18 0° 360° (N) 2,992 ? -7.3°
Reaches altitude 10° 06:06:38 10° 334° (NNW) 2,055 ? -6.8°
Maximum altitude 06:08:43 13° 306° (NW) 1,829 ? -6.4°
Drops below altitude 10° 06:10:47 10° 278° (W) 2,022 ? -6.1°
Enters shadow 06:11:54 - 266° (W) 2,271 ? -6.0°
